Showing default

GGSE 5, 2834

Orbit data source: Space-Track

GGSE 5, 2834 is an American payload satellite in LEO that was launched on Wed, 31 May 1967 UTC via a THOR SLV-2 AGENA D launch vehicle from the Air Force Western Test Range (AFWTR). Payload-class satellites include a variety of spacecraft equipped with specific instruments for various scientific and technological missions. These include communications satellites like Starlink; space stations such as the ISS; scientific satellites like the Hubble; Earth observation satellites from companies like Planet Labs, Umbra, and HawkEye 360; GPS; miniature CubeSats for education and research; and military/defense satellites.

Loading next visibility...
Identifier
2834, 1967-053D
Orbit
LEO
Country
Flag of USUS
Related business
Manufacturer
NRL
Mission
Defense Technology
Bus & Motor
NRL MULTI, Unknown motor
Mass
105 kg wet, 105 kg dry
Launch date (UTC)
1967-05-31 (58 years ago)
Launch vehicle
THOR SLV-2 AGENA D
Launch site
Air Force Western Test Range (AFWTR)
Object type
Payload
Rocket body
Debris
Shape & HBR
Ell + 2 Ant, 9.0 m
Radar Cross Section
1.247 m², Medium (>0.1 m² and < 1m²)

Expand to show TLE details & history
Last TLE update: 16 hours ago

TLE from 16 hours ago
0 GGSE 5
1 02834U 67053D   25261.21219054 -.00000004  00000-0  35793-4 0  9994
2 02834  69.9756 355.4001 0008815 219.7100 140.3362 13.96142265968170
Epoch: 2025-09-18T05:05Z
TLE epoch observation values (Epoch: 2025-09-18T05:05:33.262Z)
Latitude
0.00006°
Longitude
-78.3655°
Altitude
914.442 km
Speed
7.393 km/s
True Right ascension
23h 41m 36s
True Declination
0° 00' 00"
Sunlit
Object was in full shadow at epoch
Visualization orbit readout
Latitude
Unknown
Longitude
Unknown
Altitude
Unknown
Speed
Unknown
Apparent Right ascension
Unknown
Apparent Declination
Unknown
Sunlit
N/A
Visualization observer readout
Local Sidereal Time
13:32:46
Azimuth
Unknown
Elevation
Unknown
Doppler factor
Unknown
Orbital elements
Apogee altitude
911.65 km
Perigee altitude
898.81 km
Semi-major axis
7,283.367 km
Eccentricity
0.00088
Inclination
69.9756°
RAAN
355.4001°
Arg. of periapsis
219.71°
True anomaly
140.40062°
Mean anomaly
140.3362°
Eccentric anomaly
140.36842°
Mean motion
3.49176 °/min
Orbital period
103.1 mins
BSTAR
0.000035793
Loading maneuver chart data...
Computing Atmospheric mass density...
Loading historical data...
Loading historical data...
Loading historical data...
Loading historical data...
Loading historical data...
Loading historical data...
Loading historical data...

Documentation

Showing up to 5 results
|